Regional Weather Roundup
Issued by NWS

Home | Current Version | Previous Version | Text Only | Print | Product List | Glossary On
Versions: 1 2 3 4 5 6 7 8 9 10 11 12 13 14 15 16 17 18 19 20 21 22 23 24 25 26 27 28 29 30 31 32 33 34 35 36 37 38 39 40 41 42 43 44 45 46 47 48 49 50
000
ASCA44 KEWX 292220
RWRMX

LATIN AMERICA AND CARIBBEAN REGIONAL WEATHER ROUNDUP
NATIONAL WEATHER SERVICE AUSTIN/SAN ANTONIO TX
500 PM CDT THU SEP 29 2016

NOTE: "FAIR" INDICATED FEW OR NO CLOUDS BELOW 12,000 FEET WITH NO
SIGNIFICANT WEATHER AND/OR OBSTRUCTIONS TO VISIBILITY.

BAJA CALIFORNIA

CITY           SKY/WX    TMP DP  RH WIND       PRES   REMARKS
LORETO           N/A    N/A N/A N/A MISG        N/A
LA PAZ         MOSUNNY   90  68  48 N15       29.94F HX  93
MEXICALI       MOSUNNY   95  50  21 E7        29.95F HX  92
S.J. DEL CABO  MOSUNNY   90  64  43 SE12      29.94F HX  91
TIJUANA        MOSUNNY   84  55  37 W7        30.03S

NORTHWESTERN MEXICO

CITY           SKY/WX    TMP DP  RH WIND       PRES   REMARKS
CULIACAN       CLOUDY    86  75  70 CALM      29.93F HX  95
DURANGO        PTSUNNY   70  59  68 N9        30.30F
GUAYMAS        MOSUNNY   91  75  59 SW10      29.90F HX 102
HERMOSILLO     MOSUNNY   99  68  36 W10       29.96F HX 104
CD. JUAREZ     MOSUNNY   86  57  37 SE17      30.17F
LOS MOCHIS     MOSUNNY   91  70  49 SW13      29.93F HX  97
OBREGON        PTSUNNY   99  64  32 SW8       29.89F HX 101

NORTHEASTERN MEXICO

CITY           SKY/WX    TMP DP  RH WIND       PRES   REMARKS
CHIHUAHUA      PTSUNNY   75  57  53 E7        30.28F
MATAMOROS      PTSUNNY   84  75  74 NE12      30.04S HX  92
MONCLOVA       CLOUDY    81  68  65 NE8       30.17F
MONTERREY      CLOUDY    81  66  61 E2        30.13S
NUEVO LAREDO   PTSUNNY   90  63  40 NE7       30.10S HX  90
PIEDRAS NEGRAS MOSUNNY   90  66  45 E7        30.16  HX  92
REYNOSA        MOSUNNY   88  61  40 N9        30.05F
SALTILLO       CLOUDY    66  57  72 N14       30.33F
TORREON        PTSUNNY   81  63  54 CALM      30.20F
CD. VICTORIA   CLOUDY    75  75 100 W5        30.11F

WESTERN MEXICO

CITY           SKY/WX    TMP DP  RH WIND       PRES   REMARKS
AGUASCALIENTES PTSUNNY   72  54  53 N6        30.31F
COLIMA         PTSUNNY   81  73  78 W17       29.98F
DEL BAJIO      PTSUNNY   75  59  57 E9        30.32F
GUADALAJARA    PTSUNNY   77  61  57 NE6       30.19F
MANZANILLO     PTSUNNY   90  79  70 SE12      29.88F HX 105
MAZATLAN       PTSUNNY   90  77  66 NW9       29.91F HX 102
P. VALLARTA    CLOUDY    86  77  74 S8        29.91F HX  97
URUAPAN        PTSUNNY   68  64  88 S7        30.21F THUNDER
ZACATECAS      MOSUNNY   72  54  53 CALM      30.35F

CENTRAL MEXICO

CITY           SKY/WX    TMP DP  RH WIND       PRES   REMARKS
CUERNAVACA     PTSUNNY   79  63  57 CALM      30.12F
MEXICO CITY    TSTM      68  59  73 N7        30.33S
MORELIA        PTSUNNY   75  59  57 NW17      30.24F
POZA RICA      PTSUNNY   86  77  74 N9        30.07F HX  97
PUEBLA         PTSUNNY   66  59  77 S12       30.33F THUNDER
QUERETARO      PTSUNNY   72  57  60 NE8       30.35
S. LUIS POTOSI CLOUDY    73  55  53 E9        30.32F
TAMPICO        PTSUNNY   82  77  83 N12       30.03F HX  91
TOLUCA         PTSUNNY   64  54  68 CALM      30.39F

SOUTHERN MEXICO

CITY           SKY/WX    TMP DP  RH WIND       PRES   REMARKS
ACAPULCO       MOSUNNY   88  77  70 S5        29.88F HX 100
B. DE HUATULCO   N/A    N/A N/A N/A MISG        N/A
OAXACA         CLOUDY    77  55  47 W3        30.22F
P. ESCONDIDO   PTSUNNY   88  77  70 W8        29.98F HX 100
VERACRUZ       PTSUNNY   86  77  74 N12       30.00S HX  97
ZIHUATANEJO    MOSUNNY   91  75  59 SE7       29.90F HX 102

YUCATAN PENINSULA

CITY           SKY/WX    TMP DP  RH WIND       PRES   REMARKS
CAMPECHE       PTSUNNY   86  73  66 E12G23    29.92F HX  93
CANCUN         PTSUNNY   84  79  84 E7        30.01R HX  96
CHETUMAL       MOSUNNY   86  77  74 SE12      29.95F HX  97
CD. DEL CARMEN MOSUNNY   88  79  74 N12       29.93F HX 102
COZUMEL        PTSUNNY   86  79  79 MISG      30.01S HX  99
MERIDA         MOSUNNY   88  77  70 NW7       29.96F HX 100
MINATITLAN     PTSUNNY   84  77  79 N12       29.94F HX  94
TAPACHULA      CLOUDY    84  79  84 CALM      29.85R HX  96
TUX. GUTIERREZ PTSUNNY   86  72  62 W16       29.93F HX  92
VILLAHERMOSA   MOSUNNY   90  73  58 N9        29.94F HX  98

CENTRAL AMERICA

CITY           SKY/WX    TMP DP  RH WIND       PRES   REMARKS
BELIZE CITY    MOSUNNY   88  79  74 E8        29.98R HX 102
MANAGUA        MOCLDY    88  73  62 E14       29.80S HX  96

CARIBBEAN

CITY           SKY/WX    TMP DP  RH WIND       PRES   REMARKS
CURACAO        PTCLDY    82  73  74 W7        29.77S
KINGSTON       MOSUNNY   88  79  74 SW10      29.89S HX 102
NASSAU         LGT RAIN  84  75  74 NE7       30.05R HX  92
SAN JUAN       MOCLDY    84  79  84 E17       29.96R HX  96
SANTO DOMINGO  MOCLDY    88  77  70 NE9       29.92R HX 100
ST. CROIX      PTCLDY    82  77  83 E18       29.95S HX  91
ST. KITTS      PTCLDY    82  77  83 E13       29.97R HX  91
ST. MAARTEN    PTCLDY    84  75  74 E15       29.97R HX  92
ST. THOMAS     PTCLDY    86  77  74 E18       29.95S HX  97

$$




USA.gov is the U.S. government's official web portal to all federal, state and local government web resources and services.